{"data":{"norad_id":60419,"intl_designator":"2024-142A","name":"CAPELLA-13 (ACADIA-3)","alt_names":[],"object_type":"PAYLOAD","status":"ACTIVE","operator":null,"country":"US","launch_date":"2024-08-11","launch_site_code":"RLLB","launch_vehicle":null,"mission":null,"orbit_class":"UNKNOWN","rcs_meters":null,"size_class":null,"mass_kg":null,"dimensions":null,"purposes":[],"wikipedia_slug":null,"has_3d_model":false,"image_url":null,"decayed_at":null,"tle_current":{"epoch":"2026-05-25T01:19:08.016096Z","epoch_age_seconds":66982,"freshness":"FRESH","line1":"1 60419U 24142A   26145.05495389  .00003054  00000+0  35788-3 0  9999","line2":"2 60419  53.0030 158.5393 0001335  87.2476 272.8657 14.87668570 96962","mean_motion":14.8766857,"eccentricity":0.0001335,"inclination_deg":53.003,"raan_deg":158.5393,"arg_perigee_deg":87.2476,"mean_anomaly_deg":272.8657,"bstar":0.00035788,"rev_number":9696,"period_min":96.795753371331,"perigee_km":604.28994702318,"apogee_km":606.15450393638,"semimajor_km":6983.3592254798,"source":"CELESTRAK","updated_at":"2026-05-25T13:38:02.051500Z"}}}